Startseite
Über Mich
AHP4
Galerie
Sehschlangen
Tourenbuch
Bookmarks
Elektronik
Bewertung
Geschichten
[Tagesmessung] [Jahreswerte] [Information]

Messwerte vom 13.06.2022

Die letzten Messwerte von 23:58:49 Uhr:
KategorieMesswert
Temperatur [°C]10
Luftdruck [mBar]1006
Sonneneinstrahlung0
Wind [km/h]0 aus Nordwest
Niederschlag [l/m²]0
rel.Luftfeucht.83.8%
CO2 [ppm]547

Diagramme
Messwerte vom 13.06.2022
Tagesaggregation
KategorieMinimumMaximumSchnittSumme
Temperatur [°C]102415.6521
Luftdruck [mBar]100210061003.2542
Sonneneinstrahlung248144.2146
Wind [km/h]14
rF [%]4092.573.17
Niederschlag [l/m²]1.8025
CO2 [ppm]385638481.4
Einordnung alsVegetationstag

Messungen an benachbarten Tagen: Zur Jahresaggregation 2022
Tabelle aller Messwerte
UhrzeitTemperatur [°C]Luftdruck [mBar]SonneWind [km/h]RichtungRegen [l/m²]rF [%]CO2 [ppm]
00:01:47 16 1002 0 1 NO 0 73.1 500
00:04:47 16 1002 0 0 SO 0 73.5 504
00:07:47 16 1002 0 0 O 0 73.6 509
00:10:47 16 1002 0 1 O 0 73.2 503
00:13:45 16 1002 0 0 N 0 73.1 503
00:16:48 16 1002 0 1 NW 0 73.6 507
00:19:45 16 1002 0 1 N 0 73.8 513
00:22:46 16 1002 0 5 NO 0 74 520
00:25:47 16 1002 0 4 NO 0 74.4 518
00:28:47 16 1002 0 7 NW 0 74.4 524
00:31:47 16 1002 0 5 NW 0 74.5 524
00:34:48 16 1002 0 3 NW 0 74.7 533
00:37:48 16 1002 0 2 NW 0 74.6 538
00:40:46 16 1002 0 4 N 0 75.4 538
00:43:50 15 1002 0 2 NW 0 75.4 547
00:46:45 15 1002 0 5 N 0 75.5 548
00:49:46 15 1002 0 3 N 0 75.7 547
00:52:47 15 1002 0 4 W 0 76.5 547
00:55:49 15 1002 0 3 NO 0 76.7 547
00:58:47 15 1002 0 4 NO 0 76.2 545
01:01:49 15 1002 0 3 NW 0 76.7 551
01:04:49 15 1002 0 6 NW 0 77 548
01:07:48 15 1002 0 5 NW 0 77.1 550
01:10:46 15 1002 0 4 NW 0 77.2 563
01:13:44 15 1002 0 4 N 0 77.4 562
01:16:46 15 1002 0 3 N 0 76.8 568
01:19:46 15 1002 0 5 NW 0 76.5 571
01:22:47 15 1003 0 3 NW 0 76.5 568
01:25:47 15 1003 0 9 N 0 76.6 564
01:28:49 15 1002 0 6 NW 0 76.5 563
01:31:46 15 1002 0 6 0 76.1 568
01:34:46 15 1002 0 5 N 0 76.1 577
01:37:48 15 1002 0 4 NW 0 76 577
01:40:46 15 1003 0 4 NW 0 75.8 578
01:43:47 15 1002 0 11 N 0 75.7 582
01:46:46 15 1002 0 12 NW 0 75.5 577
01:49:46 15 1002 0 7 N 0 75.8 585
01:52:47 15 1002 0 1 N 0 75.9 586
01:55:45 15 1003 0 8 N 0 76.4 588
01:58:45 14 1002 0 5 N 0 76.5 588
02:01:46 14 1002 0 6 N 0 76.8 589
02:04:47 14 1002 0 2 W 0 77 593
02:07:48 14 1002 0 2 NW 0 77 594
02:10:48 14 1002 0 0 SO 0 76.5 597
02:13:48 14 1002 0 4 NW 0 76.4 588
02:16:46 14 1003 0 1 NO 0 76.9 581
02:19:46 14 1002 0 4 N 0 77.1 567
02:22:46 14 1002 0 3 NO 0 77.1 588
02:25:47 14 1002 0 5 N 0 77.6 593
02:28:50 14 1002 0 2 N 0 77.8 589
02:31:45 14 1002 0 1 N 0 77.3 590
02:34:48 14 1002 0 0 NW 0 77 590
02:37:51 14 1002 0 0 NW 0 76.5 591
02:40:49 14 1002 0 0 NW 0 76.5 595
02:43:49 13 1002 0 0 NW 0 76.8 603
02:46:47 13 1002 0 0 NW 0 77 606
02:49:49 13 1002 0 0 NW 0 78.7 603
02:52:49 14 1002 0 0 NW 0 78.4 603
02:55:48 13 1002 0 0 NW 0 77.9 603
02:58:48 13 1002 0 0 NW 0 77.8 609
03:01:50 13 1002 0 0 NW 0 78.2 612
03:04:47 13 1002 0 0 NW 0 78.6 612
03:07:46 13 1002 0 4 N 0 79.2 609
03:10:46 13 1002 0 1 N 0 80.3 607
03:13:46 13 1002 0 5 N 0 80 606
03:16:47 13 1002 0 1 NW 0 79.4 606
03:19:47 14 1002 0 4 N 0 79.2 609
03:22:48 14 1002 0 3 NO 0 78.2 615
03:25:47 14 1002 0 4 NO 0 77.6 630
03:28:47 14 1002 0 5 W 0 77 635
03:31:47 14 1002 0 1 S 0 76.1 638
03:34:47 14 1002 0 2 NW 0 76 623
03:37:45 14 1002 0 1 N 0 75.7 618
03:40:46 14 1002 0 0 S 0 74.8 617
03:43:49 14 1002 0 1 NW 0 75.1 615
03:46:45 13 1002 0 1 N 0 75.8 613
03:49:48 13 1002 0 0 O 0 75.4 609
03:52:48 13 1002 0 2 N 0 74.5 613
03:55:47 13 1002 0 2 NO 0 74.4 615
03:58:46 13 1002 0 0 SO 0 74.3 621
04:01:48 13 1002 0 0 O 0 74 623
04:04:48 13 1002 0 0 S 0 74.1 624
04:07:46 13 1002 0 1 S 0 74.2 621
04:10:47 13 1002 0 0 S 0 74.1 612
04:13:50 13 1002 0 0 NW 0 74.2 620
04:16:47 13 1002 0 0 NW 0 74.5 618
04:19:47 12 1002 0 0 NW 0 75.4 618
04:22:45 12 1002 3 0 O 0 75.5 618
04:25:48 12 1002 5 0 O 0 76.8 621
04:28:46 11 1002 7 0 O 0 77.3 618
04:31:46 11 1002 10 0 O 0 77.3 615
04:34:49 11 1002 14 0 O 0 77.5 618
04:37:47 11 1002 19 0 O 0 77.4 619
04:40:47 11 1002 25 0 O 0 77.6 618
04:43:48 11 1002 32 0 O 0 78.1 618
04:46:47 11 1002 39 0 O 0 78.1 615
04:49:48 11 1002 47 0 O 0 78.8 618
04:52:45 10 1002 55 0 O 0 79 615
04:55:50 10 1002 64 0 O 0 79.2 618
04:58:46 10 1002 72 0 O 0 79.3 615
05:01:48 10 1002 80 0 O 0 79.7 614
05:04:48 10 1002 89 0 O 0 80 612
05:07:47 10 1002 96 0 O 0 81.1 606
05:10:49 10 1003 102 0 O 0 82 609
05:13:46 10 1002 107 0 O 0 82.1 614
05:16:48 10 1002 116 0 NO 0 83.9 618
05:19:48 10 1002 124 0 NW 0 85.1 615
05:22:51 10 1002 130 0 NW 0 84.2 618
05:25:49 10 1002 134 0 S 0 84.2 616
05:28:49 10 1002 139 0 S 0 84.5 617
05:31:48 10 1002 147 0 S 0 84.7 618
05:34:49 10 1002 158 0 S 0 84.8 618
05:37:47 10 1002 168 0 S 0 84.8 618
05:40:48 10 1002 175 1 SW 0 85.4 615
05:43:48 10 1002 177 0 SO 0 85.7 615
05:46:50 10 1002 176 0 SO 0 85.8 612
05:49:51 11 1002 173 0 SW 0 85.8 614
05:52:48 11 1002 172 0 SW 0 85.6 615
05:55:48 11 1002 170 0 SW 0 85.4 612
05:58:47 11 1002 172 0 SW 0 85.3 615
06:01:50 11 1002 175 0 SW 0 85.4 620
06:04:49 11 1002 178 0 SW 0 85.6 621
06:07:50 11 1002 180 0 SO 0 85.6 620
06:10:49 12 1002 180 0 S 0 85.1 627
06:13:49 12 1002 179 0 S 0 84.8 627
06:16:49 12 1003 179 0 SO 0 84.4 635
06:19:48 12 1002 178 1 S 0 83.9 635
06:22:48 12 1003 178 0 S 0 83.8 634
06:25:49 12 1002 178 0 SW 0 83.8 623
06:28:47 12 1003 178 0 S 0 84.1 624
06:31:47 12 1003 180 0 S 0 84.4 618
06:34:51 12 1002 184 0 SW 0 84.4 630
06:37:48 12 1003 182 0 SW 0 84.4 623
06:40:50 12 1003 184 0 S 0 84.5 630
06:43:49 12 1002 184 0 S 0 84.6 623
06:46:46 12 1002 188 0 S 0 84.6 614
06:49:47 12 1003 192 0 W 0 84.7 611
06:52:52 12 1002 194 0 SO 0 84.7 620
06:55:51 12 1002 199 0 SO 0 84.7 628
06:58:49 13 1002 200 0 S 0 84.8 616
07:01:49 13 1002 205 0 SO 0 84.4 577
07:04:48 13 1002 209 0 SO 0 84.2 557
07:07:48 13 1003 209 0 NW 0 84.1 539
07:10:51 14 1002 199 0 NW 0 83.5 529
07:13:47 14 1002 202 0 S 0 83 516
07:16:49 14 1002 200 0 SO 0 81.9 512
07:19:48 14 1002 194 0 S 0 81.1 498
07:22:47 14 1002 152 0 S 0 80.7 439
07:25:50 14 1002 147 0 N 0 81.2 404
07:28:48 14 1002 148 0 SO 0 81.2 404
07:31:45 14 1003 191 0 S 0 81.1 407
07:34:49 14 1002 193 0 SW 0 80.7 404
07:37:49 14 1003 187 0 SW 0 80.7 407
07:40:50 14 1002 186 0 SW 0 81 407
07:43:49 14 1002 187 0 SW 0 81.1 407
07:46:50 14 1002 189 1 SW 0 80.7 407
07:49:47 14 1002 191 0 S 0 80.3 401
07:52:47 14 1003 195 0 NW 0 80.7 404
07:55:50 14 1003 197 0 NW 0 81.1 405
07:58:49 14 1002 197 0 NW 0 81.3 406
08:01:48 14 1003 197 0 NW 0 81.7 404
08:04:48 15 1002 202 0 O 0 80.8 404
08:07:50 15 1003 208 0 S 0 80.1 404
08:10:50 15 1002 210 0 SO 0 79.1 404
08:13:50 15 1002 214 0 SO 0 78.6 404
08:16:47 15 1002 213 1 SW 0 77.2 407
08:19:48 15 1003 211 0 SO 0 77 407
08:22:49 16 1003 205 0 SO 0 77 404
08:25:47 16 1002 204 1 W 0 76.1 404
08:28:49 16 1003 211 2 NW 0 74.5 404
08:31:48 16 1003 216 1 SO 0 74.1 406
08:34:48 17 1002 216 4 W 0 74 404
08:37:47 17 1002 218 0 SW 0 73.1 404
08:40:50 17 1003 216 0 NW 0 71.8 404
08:43:50 17 1003 215 2 NW 0 69.9 407
08:46:49 17 1003 213 2 SW 0 69.9 404
08:49:49 17 1002 216 2 W 0 70.8 406
08:52:48 17 1003 215 2 S 0 71.2 407
08:55:48 17 1003 217 3 SO 0 71.2 403
08:58:48 17 1003 216 2 NW 0 72 406
09:01:48 17 1002 212 2 NW 0 71.4 407
09:04:49 17 1002 213 0 NW 0 71.7 406
09:07:48 16 1002 216 2 NW 0 71.4 406
09:10:49 16 1002 216 0 SW 0 71.8 405
09:13:48 17 1003 215 2 W 0 73.4 406
09:16:48 17 1002 217 0 SO 0 72.6 403
09:19:50 17 1003 217 1 SW 0 71.2 407
09:22:48 17 1002 218 3 S 0 70 404
09:25:49 17 1002 219 0 SW 0 70 404
09:28:49 17 1002 219 1 S 0 70.5 404
09:31:53 18 1002 220 2 SO 0 69.3 404
09:34:47 18 1002 220 1 S 0 68.4 407
09:37:48 18 1003 221 0 S 0 66.7 404
09:40:47 18 1002 221 1 S 0 67.4 406
09:43:54 18 1002 217 1 S 0 68 407
09:46:48 18 1002 216 1 SW 0 67.4 407
09:49:47 18 1003 216 0 O 0 66.7 407
09:52:47 18 1002 216 1 SO 0 65.3 404
09:55:49 18 1003 214 2 SO 0 66.2 406
09:58:49 18 1003 217 0 NO 0 64.8 407
10:01:49 18 1002 219 2 SO 0 64.6 407
10:04:49 18 1003 218 2 N 0 60.9 404
10:07:48 18 1002 220 5 SW 0 63.4 407
10:10:49 18 1003 218 4 NW 0 64.2 404
10:13:48 19 1002 214 6 S 0 64.8 407
10:16:49 19 1002 216 6 W 0 61.7 401
10:19:49 19 1003 218 0 SW 0 61.4 406
10:22:49 19 1002 219 2 SO 0 60.3 405
10:25:49 19 1003 217 2 NO 0 59.9 405
10:28:51 19 1002 204 1 NW 0 60.6 404
10:31:50 19 1002 217 1 SW 0 60.6 407
10:34:48 19 1002 225 2 SW 0 60.8 406
10:37:48 19 1003 220 4 SO 0 60.9 403
10:40:50 19 1003 208 3 SO 0 58.8 407
10:43:49 19 1003 206 1 NW 0 58.4 404
10:46:34 18 1002 212 1 NO 0 51.4 406
10:49:49 18 1003 217 1 S 0 60.9 404
10:52:47 18 1003 222 1 W 0 60.3 407
10:55:47 18 1003 224 4 W 0 60.7 403
10:58:48 19 1002 223 1 W 0 62.1 404
11:01:50 19 1003 224 2 SW 0 61.6 406
11:04:47 19 1002 224 1 S 0 60.3 406
11:07:48 20 1002 224 2 O 0 59.3 403
11:10:49 20 1003 221 3 0 59.1 406
11:13:49 20 1002 216 3 NO 0 55.4 404
11:16:47 20 1002 216 4 SW 0 55.5 404
11:19:48 21 1003 224 5 W 0 57.4 404
11:22:48 21 1002 226 6 W 0 55.6 406
11:25:50 21 1003 229 10 NW 0 54.2 404
11:28:47 20 1002 223 4 S 0 53.8 407
11:31:51 21 1003 218 2 SO 0 54.5 404
11:34:50 21 1002 209 5 SW 0 53.5 407
11:37:48 20 1003 199 5 SO 0 52.7 407
11:40:46 20 1002 215 4 S 0 53.5 407
11:43:49 19 1003 220 5 NW 0 59.6 406
11:46:49 18 1002 218 1 W 0 60.2 407
11:49:31 19 1002 216 0 SO 0 45.7 404
11:52:47 18 1002 211 3 O 0 66.8 404
11:55:48 19 1002 211 3 S 0 70.2 407
11:58:48 20 1002 218 3 W 0 69.2 406
12:01:50 21 1002 228 3 SO 0 63.1 406
12:04:48 22 1002 230 4 SO 0 57.2 407
12:07:50 23 1002 222 2 NO 0 51 404
12:10:48 22 1002 219 1 N 0 50.5 406
12:13:48 22 1002 218 9 NO 0 50.7 407
12:16:48 22 1002 207 5 S 0 50.9 406
12:19:47 21 1002 214 6 SO 0 51.3 407
12:22:48 22 1003 216 4 NW 0 51.9 404
12:25:49 22 1002 219 2 S 0 52.2 404
12:28:51 23 1002 225 5 W 0 49 404
12:31:49 24 1002 226 2 W 0 48.1 407
12:34:48 24 1002 218 2 S 0 40.2 405
12:37:48 24 1002 227 2 SW 0 42 407
12:40:50 24 1002 227 11 NO 0 42.7 404
12:43:49 23 1002 229 8 W 0 42.2 406
12:46:49 23 1002 223 10 S 0 41.7 408
12:49:46 23 1003 213 11 S 0 41.5 403
12:52:52 20 1002 204 7 NW 0 48.5 406
12:55:48 22 1003 202 4 NO 0 57.5 403
12:58:46 21 1003 214 6 O 0 59 407
13:01:51 21 1003 217 5 SW 0 63.2 408
13:04:32 20 1003 220 3 NW 0 40 406
13:07:49 20 1002 225 4 NW 0 66.6 404
13:10:51 17 1003 231 2 NW 0 66.5 396
13:13:48 17 1004 231 1 NW 0 66.6 404
13:16:47 17 1003 214 4 NO 0 63.3 406
13:19:48 17 1003 185 3 W 0 61.9 407
13:22:49 17 1003 168 4 SO 0 62 406
13:25:48 17 1003 154 10 NW 0 63.5 404
13:28:49 16 1004 189 5 SO 0 69.1 404
13:31:49 15 1004 208 1 S 0.7725 74.7 406
13:34:48 14 1004 218 1 SW 0.2575 80.5 404
13:37:49 14 1003 223 3 W 0 83.7 406
13:40:48 14 1003 224 1 NW 0.2575 86.4 404
13:43:48 14 1003 229 1 SW 0 87.4 406
13:46:48 14 1003 230 2 W 0 89.5 403
13:49:49 15 1003 229 4 NW 0 90.5 407
13:52:47 16 1003 225 1 NO 0 92.5 407
13:55:50 17 1003 224 0 SO 0 92.5 407
13:58:48 19 1003 226 0 W 0 86 407
14:01:46 19 1003 228 4 S 0 78.3 404
14:04:46 19 1003 228 1 O 0 78.1 406
14:07:50 20 1003 229 2 SW 0 79.8 404
14:10:31 18 1003 230 1 NO 0 71.1 407
14:13:48 21 1004 234 3 W 0 74.8 407
14:16:49 21 1004 237 3 SO 0 74.5 404
14:19:48 21 1004 239 5 W 0 66.5 407
14:22:49 21 1004 239 7 SW 0 73 404
14:25:48 21 1003 230 3 S 0 70.5 407
14:28:48 21 1003 240 3 S 0 68.7 406
14:31:51 21 1004 241 6 SW 0 70.6 404
14:34:47 21 1003 242 4 SO 0 71.1 404
14:37:47 22 1003 231 3 S 0 71.6 406
14:40:50 22 1003 243 2 S 0 69 405
14:43:49 23 1003 219 1 O 0 68.2 401
14:46:47 22 1004 193 3 NW 0 66.7 407
14:49:47 21 1003 174 8 N 0 63 404
14:52:49 18 1004 184 6 NW 0 66.1 407
14:55:46 20 1004 196 6 SW 0 70.7 406
14:58:48 20 1005 198 3 SW 0 77.3 407
15:01:33 19 1005 204 6 S 0 56 404
15:04:50 18 1004 210 7 SO 0 86.4 407
15:07:47 18 1005 213 1 SO 0 86.5 404
15:10:51 18 1004 212 2 NW 0 89 406
15:13:50 17 1004 218 2 NO 0 89.1 404
15:16:48 14 1004 225 0 SW 0 89.2 406
15:19:51 15 1004 230 2 SO 0 89.1 406
15:22:48 15 1004 231 0 O 0 88.7 407
15:25:49 16 1003 226 0 SO 0 88 406
15:28:52 16 1003 219 0 SO 0 85.7 406
15:31:49 17 1004 216 3 NW 0 84.9 404
15:34:46 17 1004 227 1 W 0 84.1 403
15:37:48 17 1003 233 1 SW 0 82.8 406
15:40:47 17 1004 231 1 W 0 82.8 407
15:43:48 17 1004 234 3 0 81.6 404
15:46:48 17 1004 234 1 SW 0 81.8 407
15:49:48 18 1004 235 1 SW 0 80.8 404
15:52:47 18 1003 233 1 W 0 79.3 407
15:55:45 18 1004 233 0 O 0 78.1 404
15:58:49 18 1004 234 1 SW 0 77.6 404
16:01:47 18 1004 230 2 SO 0 77.5 403
16:04:49 19 1004 223 2 SW 0 77.8 406
16:07:49 18 1004 225 2 SW 0 76.2 407
16:10:50 18 1003 226 0 SW 0 75.7 403
16:13:48 18 1004 227 2 SO 0 75.9 407
16:16:49 18 1004 230 0 SO 0 76.1 407
16:19:47 19 1004 237 3 W 0 75.1 406
16:22:31 17 1004 241 1 W 0 68.1 405
16:25:48 20 1004 223 1 SO 0 73.9 407
16:28:49 20 1004 231 2 SW 0 71.5 407
16:31:48 20 1004 244 5 W 0 71.5 407
16:34:49 20 1004 240 3 S 0 74.3 407
16:37:49 21 1004 247 4 SW 0 72.2 409
16:40:49 23 1003 247 0 W 0 65.6 404
16:43:46 24 1004 247 0 S 0 64.9 407
16:46:48 24 1004 223 1 NO 0 61.7 407
16:49:50 22 1004 227 5 NW 0 57.2 407
16:52:48 21 1004 241 1 NW 0 59.2 407
16:55:46 20 1004 238 3 N 0 66.5 417
16:58:50 20 1003 242 8 NW 0 60.8 410
17:01:48 19 1004 227 1 N 0 64.3 413
17:04:48 19 1004 239 5 N 0 64.8 407
17:07:49 19 1004 248 7 N 0 64.9 412
17:10:50 18 1005 226 10 NW 0 66.2 415
17:13:47 17 1003 220 8 O 0.2575 68.6 413
17:16:48 16 1003 222 0 N 0 70.4 419
17:19:46 16 1004 226 2 N 0 73.2 410
17:22:30 16 1004 235 1 N 0 57.9 413
17:25:50 18 1004 247 4 NW 0 75.9 404
17:28:48 19 1004 248 5 N 0 73.6 407
17:31:49 20 1003 248 5 NW 0 64.9 407
17:34:49 22 1004 247 1 SO 0 64 410
17:37:45 22 1003 231 2 S 0 63.2 415
17:40:47 21 1004 230 5 N 0 55.5 416
17:43:46 20 1003 215 2 W 0 57.6 409
17:46:48 19 1004 205 3 NW 0 59 407
17:49:31 20 1003 200 3 NO 0 48.5 407
17:52:47 17 1004 203 14 W 0 64.9 412
17:55:30 18 1003 213 9 N 0 40 419
17:58:46 15 1004 246 3 0 71.9 421
18:01:45 15 1004 241 1 0.2575 81.4 422
18:04:48 15 1004 239 3 NW 0 83 439
18:07:48 15 1004 221 2 S 0 82.5 457
18:10:49 15 1004 242 3 O 0 83.1 466
18:13:49 15 1004 228 1 N 0 84.6 459
18:16:49 15 1004 225 1 NW 0 84.7 478
18:19:48 16 1004 208 4 W 0 84.2 490
18:22:47 15 1004 202 3 W 0 83.1 489
18:25:49 15 1004 215 4 W 0 83.3 492
18:28:48 15 1004 211 3 W 0 83.3 492
18:31:49 15 1004 222 2 NW 0 83 497
18:34:50 16 1004 246 3 NW 0 84.5 500
18:37:47 18 1004 247 2 O 0 82.8 512
18:40:48 17 1004 247 2 W 0 75.8 521
18:43:49 18 1003 247 2 SW 0 67.5 527
18:46:48 18 1004 247 4 W 0 62.5 524
18:49:47 18 1004 247 6 W 0 55.5 535
18:52:49 20 1003 244 0 SO 0 59 544
18:55:32 17 1004 230 4 N 0 48.5 550
18:58:48 18 1004 236 0 SW 0 63.6 557
19:01:48 18 1004 220 3 SW 0 65.9 559
19:04:47 17 1004 214 1 W 0 66.9 565
19:07:48 17 1004 192 0 N 0 68.7 557
19:10:47 17 1004 191 3 O 0 70.7 504
19:13:45 16 1004 192 3 N 0 71.1 413
19:16:50 16 1004 195 3 NW 0 70.2 404
19:19:48 16 1004 209 3 NW 0 70 404
19:22:48 16 1004 220 7 NW 0 69 405
19:25:48 16 1004 231 4 W 0 67.6 419
19:28:49 16 1005 215 7 W 0 67.9 420
19:31:48 16 1005 207 3 N 0 66.2 418
19:34:48 16 1004 204 2 NW 0 65.8 413
19:37:51 16 1004 204 4 NW 0 66.6 424
19:40:49 16 1004 204 4 NW 0 67 436
19:43:49 16 1004 207 5 W 0 67.8 444
19:46:48 16 1004 214 3 NW 0 68 442
19:49:49 16 1005 208 1 NW 0 67.7 442
19:52:51 16 1006 206 3 NW 0 68.3 436
19:55:48 16 1005 210 0 N 0 68.9 436
19:58:47 16 1005 210 1 N 0 69.4 448
20:01:48 16 1005 212 1 W 0 69.2 451
20:04:51 16 1005 209 1 SO 0 66.4 454
20:07:49 16 1005 206 3 W 0 65.7 452
20:10:49 16 1005 207 5 NW 0 65.8 462
20:13:47 16 1005 200 6 W 0 64.7 454
20:16:48 16 1005 197 5 O 0 64.9 460
20:19:48 16 1005 194 13 W 0 64.5 459
20:22:47 16 1004 190 4 N 0 64.6 459
20:25:48 16 1005 189 4 NW 0 64.4 459
20:28:49 15 1005 188 2 NW 0 64.6 454
20:31:48 15 1005 188 1 NW 0 66.1 453
20:34:51 15 1005 182 0 NW 0 66.4 457
20:37:48 15 1005 179 2 NW 0 67.8 457
20:40:50 15 1005 174 3 N 0 67.2 463
20:43:47 15 1005 149 5 N 0 67 462
20:46:47 15 1006 146 1 O 0 66.9 439
20:49:49 15 1006 141 3 NW 0 67.3 404
20:52:48 15 1006 165 0 NW 0 67.6 407
20:55:47 15 1005 171 3 S 0 68.6 407
20:58:48 15 1005 176 2 SW 0 69.1 403
21:01:47 15 1006 170 0 NW 0 69.1 406
21:04:49 15 1006 164 0 NW 0 69.2 406
21:07:50 15 1005 156 1 NW 0 69.2 415
21:10:47 14 1006 147 0 NW 0 69.6 418
21:13:50 14 1006 138 0 NW 0 70.1 422
21:16:46 14 1005 131 0 NW 0 70.6 427
21:19:48 14 1005 124 0 0 71.3 428
21:22:49 14 1006 117 0 NW 0 72.3 434
21:25:48 14 1005 110 0 NW 0 72.2 385
21:28:49 13 1006 103 0 NW 0 72.4 442
21:31:51 13 1006 94 0 NW 0 72.9 439
21:34:50 13 1006 86 0 SO 0 73.2 440
21:37:47 13 1006 77 0 SO 0 73.6 446
21:40:50 13 1006 68 0 SO 0 74.1 456
21:43:47 12 1006 58 0 SO 0 74.6 463
21:46:49 12 1006 49 0 SO 0 75.8 466
21:49:48 12 1006 41 0 SO 0 76.3 468
21:52:47 12 1006 33 0 SO 0 77.1 471
21:55:48 12 1006 26 0 SO 0 78.5 474
21:58:50 12 1006 19 0 SO 0 78.1 469
22:01:47 11 1006 14 0 SO 0 78.8 471
22:04:46 11 1006 11 0 O 0 79.2 477
22:07:47 11 1006 9 0 O 0 80 486
22:10:47 11 1006 6 0 O 0 80.4 483
22:13:46 11 1006 6 0 O 0 80.9 468
22:16:47 11 1006 5 0 SW 0 81.6 457
22:19:49 11 1006 4 0 SW 0 81.7 471
22:22:49 11 1006 4 0 SO 0 81.8 489
22:25:51 11 1006 3 0 SO 0 82 501
22:28:47 11 1006 3 0 SO 0 82.4 509
22:31:49 11 1006 0 0 SO 0 83.4 518
22:34:48 11 1006 0 0 SO 0 83.1 518
22:37:49 11 1006 0 0 SO 0 83.2 518
22:40:48 11 1006 0 0 SO 0 83.2 530
22:43:48 11 1006 0 0 SO 0 84.1 536
22:46:47 11 1006 0 0 SO 0 84.1 536
22:49:47 11 1006 0 0 SO 0 84.2 544
22:52:48 11 1006 0 0 SO 0 84.3 542
22:55:48 11 1006 0 0 SO 0 84.1 542
22:58:47 11 1006 0 0 SO 0 83.9 547
23:01:46 11 1006 0 0 SO 0 84 556
23:04:49 11 1006 0 0 SO 0 84 560
23:07:50 11 1006 0 0 SW 0 84.2 562
23:10:49 11 1006 0 1 NW 0 83.8 542
23:13:48 12 1006 0 0 NW 0 83.3 495
23:16:46 12 1006 0 0 NW 0 82.8 471
23:19:46 12 1006 0 0 NW 0 82.7 471
23:22:50 11 1006 0 0 NW 0 82.5 486
23:25:48 11 1006 0 0 NW 0 82.6 565
23:28:50 11 1006 0 0 NW 0 82.9 583
23:31:49 11 1006 0 0 NW 0 82.9 565
23:34:47 11 1006 0 0 N 0 83 556
23:37:49 11 1006 0 0 NW 0 83.4 548
23:40:48 11 1006 0 0 NW 0 83.1 547
23:43:47 11 1006 0 0 NW 0 83.2 545
23:46:48 11 1006 0 0 NW 0 83.7 544
23:49:48 11 1006 0 0 NW 0 83.3 547
23:52:48 10 1006 0 0 NW 0 83.2 550
23:55:49 10 1006 0 0 NW 0 83.4 548
23:58:49 10 1006 0 0 NW 0 83.8 547

Letzte Änderung : 22-Jul-2022
Copyright Jens Köhler, Wolfsburg, Obere Dorfstraße 10d